Showing default

UMBRA-10, 60547

Orbit data source: Space-Track

UMBRA-10, 60547 is a payload satellite owned by Umbra Labs (US) in SSO that was launched on Fri, 16 Aug 2024 UTC via an FALCON 9 launch vehicle from the Air Force Western Test Range (AFWTR). Payload-class satellites include a variety of spacecraft equipped with specific instruments for various scientific and technological missions. These include communications satellites like Starlink; space stations such as the ISS; scientific satellites like the Hubble; Earth observation satellites from companies like Planet Labs, Umbra, and HawkEye 360; GPS; miniature CubeSats for education and research; and military/defense satellites.

Loading next visibility...
Identifier
60547, 2024-149CH
Orbit
SSO
Country
Flag of USUS
Related business
Manufacturer
Umbra Labs
Mission
Operational Commercial Radar Imaging
Bus & Motor
ESPASAT?, Unknown motor
Mass
84 kg wet, 79 kg dry
Launch date (UTC)
2024-08-16 (2 years ago)
Launch vehicle
FALCON 9
Launch site
Air Force Western Test Range (AFWTR)
Object type
Payload
Rocket body
Debris
Shape & HBR
Box + 2 Pan + 1 Dish, 2.0 m
Radar Cross Section
6.513 m², Large (>1 m²)

Expand to show TLE details & history
Last TLE update: 6 hours ago

TLE from 6 hours ago
0 UMBRA-10
1 60547U 24149CH  26126.19159480  .00015748  00000-0  80395-3 0  9999
2 60547  97.6964 212.7496 0002261 120.1737 239.9720 15.16798926 94366
Epoch: 2026-05-06T04:35Z
TLE epoch observation values (Epoch: 2026-05-06T04:35:53.790Z)
Latitude
-0.00001°
Longitude
-80.28015°
Altitude
519.381 km
Speed
7.603 km/s
True Right ascension
14h 10m 59s
True Declination
0° 00' 00"
Sunlit
Object was in full shadow at epoch
Visualization orbit readout
Latitude
Unknown
Longitude
Unknown
Altitude
Unknown
Speed
Unknown
Apparent Right ascension
Unknown
Apparent Declination
Unknown
Sunlit
N/A
Visualization observer readout
Local Sidereal Time
18:23:31
Azimuth
Unknown
Elevation
Unknown
Doppler factor
Unknown
Orbital elements
Apogee altitude
514.063 km
Perigee altitude
510.947 km
Semi-major axis
6,890.642 km
Eccentricity
0.00023
Inclination
97.6964°
RAAN
212.7496°
Arg. of periapsis
120.1737°
True anomaly
239.94957°
Mean anomaly
239.972°
Eccentric anomaly
239.96079°
Mean motion
3.79449 °/min
Orbital period
94.87 mins
BSTAR
0.00080395
Loading maneuver chart data...
Computing Atmospheric mass density...
Loading historical data...
Loading historical data...
Loading historical data...
Loading historical data...
Loading historical data...
Loading historical data...
Loading historical data...

Documentation

Showing up to 5 results
|